Regional Weather Roundup
Issued by NWS

Home | Current Version | Previous Version | Graphics & Text | Print | Product List | Glossary Off
Versions: 1 2 3 4 5 6 7 8 9 10 11 12 13 14 15 16 17 18 19 20 21 22 23 24 25 26 27 28 29 30 31 32 33 34 35 36 37 38 39 40 41 42 43 44 45 46 47 48 49 50

000
ASUS43 KTOP 290659
RWRKS

WEATHER ROUNDUP FOR KANSAS
NATIONAL WEATHER SERVICE GOODLAND KS
200 AM CDT THU JUN 29 2017

NOTE:  "FAIR" INDICATES FEW OR NO CLOUDS BELOW 12,000 FEET WITH NO
SIGNIFICANT WEATHER AND/OR OBSTRUCTIONS TO VISIBILITY.

KSZ001>006-013>018-027>032-041>047-290800-
NORTHWEST KANSAS

CITY           SKY/WX    TMP DP  RH WIND       PRES   REMARKS
GOODLAND       TSTM      67  59  75 NW18      29.87R
HAYS           CLEAR     77  66  68 S10       29.72R
HILL CITY      PTCLDY    75  64  68 SE5       29.73S
RUSSELL        CLEAR     78  65  63 S21       29.70R
$$

KSZ061>065-074>080-084>089-290800-
SOUTHWEST KANSAS

CITY           SKY/WX    TMP DP  RH WIND       PRES   REMARKS
DODGE CITY     CLEAR     75  65  70 S20       29.71F
ELKHART          N/A     75  50  41 S17         N/A
GARDEN CITY    CLEAR     74  63  68 S13       29.70S
GREAT BEND     CLEAR     77  66  68 S16       29.71S
LIBERAL        CLEAR     79  60  52 S25G35    29.69F
$$

KSZ066>073-081>083-090>101-290800-
SOUTHEAST KANSAS

CITY           SKY/WX    TMP DP  RH WIND       PRES   REMARKS
CHANUTE        CLEAR     77  67  71 S13       29.81F
COFFEYVILLE    HAZE      76  68  76 S10       29.82S VSB 1/4
HUTCHINSON     CLEAR     79  66  64 S18       29.74S
MEDICINE LODGE   N/A     77  65  66 SE9       29.74F
NEWTON         CLEAR     77  66  68 S23G29    29.77F
PARSONS        CLEAR     76  67  73 S7        29.83S
WICHITA INTL   PTCLDY    77  67  71 S14       29.76S
WICHITA JABRA  CLEAR     77  66  68 S14       29.77S
WICHITA MCCONL CLEAR     78  65  65 S14       29.78S
WINFIELD       CLEAR     77  66  68 S17G23    29.80R
$$

KSZ007>012-019>026-033>040-048>060-102>105-290800-
NORTHEAST KANSAS

CITY           SKY/WX    TMP DP  RH WIND       PRES   REMARKS
CONCORDIA      TSTM      68  63  84 SE10      29.77S
EMPORIA        PTCLDY    76  67  73 S14G21    29.79R
LAWRENCE       MOCLDY    79  69  71 S13G22    29.78R
MANHATTAN      CLOUDY    76  62  62 N6G16     29.80S
OLATHE IND     CLEAR     77  67  71 S13       29.81R
OLATHE EXE     CLEAR     77  68  73 S13       29.81R
SALINA         MOCLDY    83  66  56 SE9       29.75R
TOPEKA BILLARD CLOUDY    81  69  67 SW12      29.79R
TOPEKA FORBES  CLOUDY    81  68  64 S16       29.78R
$$




USA.gov is the U.S. government's official web portal to all federal, state and local government web resources and services.